• Join FlightAware (Why Join?)
  • Login
  • US Flag 
03:23AM EST


 

Airport Tracker/Info


-or-


 

Live Flight TrackerFlight Track Log ✈ SWA1017 ✈ 23-Apr-2013 ✈ KAUS - KDAL

Flight Track Log - Related Links

Times and Time Zones

All times are in EDT time to prevent confusion due to time zone crossing. See the SWA1017 flight status page for this flight to view local times or setup timezone preferences in your user account.

Time Position Orientation Groundspeed Altitude Reporting Facility
EDT Latitude Longitude Course Direction KTS MPH feet Rate Location/Type
05:00PM 30.3217 -97.5553 41° Northeast 253 291 6,100  Level Houston Center
05:01PM 30.3947 -97.4767 43° Northeast 298 343 10,100 3,048 Climbing Houston Center
05:03PM 30.4689 -97.4031 41° Northeast 338 389 12,400 2,806 Climbing Houston Center
05:04PM 30.5483 -97.3225 41° Northeast 371 427 15,900 3,024 Climbing Houston Center
05:05PM 30.6177 -97.2312 60° Northeast  Level FlightAware Approximate
05:05PM 30.6275 -97.2336 44° Northeast 387 445 18,700  Level Houston Center
05:06PM 30.6828 -97.1506 41° Northeast  Level FlightAware Approximate
05:06PM 30.7064 -97.1383 46° Northeast 404 465 21,900  Level Houston Center
05:07PM 30.7828 -97.0456 46° Northeast 401 461 22,000 48 Climbing Houston Center
05:08PM 30.8728 -96.9381 46° Northeast 398 458 22,000  Level Houston Center
05:09PM 30.9500 -96.8464 46° Northeast 399 459 22,000  Level Houston Center
05:10PM 31.0286 -96.7522 46° Northeast 402 463 22,000  Level Houston Center
05:11PM 31.1072 -96.6569 46° Northeast 404 465 22,000  Level Houston Center
05:12PM 31.1858 -96.5619 46° Northeast 406 467 22,000  Level Houston Center
05:13PM 31.2644 -96.4672 46° Northeast 403 464 22,000  Level Houston Center
05:14PM 31.3569 -96.3561 46° Northeast 406 467 22,000 -242 Level Houston Center
05:15PM 31.4536 -96.3044 25° Northeast 390 449 21,500 -468 Descending Houston Center
05:15PM 31.4714 -96.3003 11° North 376 433 21,400 -960 Descending Fort Worth Center
05:16PM 31.5736 -96.2917 North 359 413 20,300 -1,041 Descending Fort Worth Center
05:17PM 31.6717 -96.2783 North 359 413 19,300 -1,000 Descending Fort Worth Center
05:18PM 31.7719 -96.2697 North 354 407 18,300 -958 Descending Fort Worth Center
05:19PM 31.8678 -96.2564 North 348 400 17,400 -942 Descending Fort Worth Center
05:20PM 31.9636 -96.2453 North 348 400 16,400 -1,000 Descending Fort Worth Center
05:21PM 32.0617 -96.2342 North 348 400 15,400 -1,109 Descending Fort Worth Center
05:22PM 32.1658 -96.2206 North 348 400 14,200 -1,438 Descending Fort Worth Center
05:23PM 32.2414 -96.2564 338° Northwest 320 368 12,500 -1,750 Descending Fort Worth Center
05:24PM 32.3297 -96.3069 334° Northwest 315 362 10,700 -1,462 Descending Fort Worth Center
05:25PM 32.3925 -96.3531 328° Northwest 310 357 9,600 -1,140 Descending Fort Worth Center
05:26PM 32.4558 -96.4211 318° Northwest 286 329 8,400 -1,100 Descending Fort Worth Center
05:27PM 32.5042 -96.4747 317° Northwest 268 308 7,400 -1,160 Descending Fort Worth Center
05:28PM 32.5631 -96.5383 318° Northwest 263 303 6,100 -1,240 Descending Fort Worth Center
05:29PM 32.6114 -96.5897 318° Northwest 263 303 4,900 -1,300 Descending Fort Worth Center
05:30PM 32.6683 -96.6533 317° Northwest 257 296 3,500 -958 Descending Fort Worth Center
05:31PM 32.7125 -96.7047 316° Northwest 251 289 3,000 -397 Descending Fort Worth Center
05:32PM 32.7564 -96.7539 317° Northwest 211 243 2,700 -576 Descending Fort Worth Center
05:33PM 32.7833 -96.8000 305° West 151 174 1,800 -816 Descending Dallas / Fort Worth TRACON
05:34PM 32.8167 -96.8167 337° Northwest 129 148 1,000 -787 Descending Dallas / Fort Worth TRACON